Regional Weather Roundup
Issued by NWS

Home | Current Version | Previous Version | Text Only | Print | Product List | Glossary On
Versions: 1 2 3 4 5 6 7 8 9 10 11 12 13 14 15 16 17 18 19 20 21 22 23 24 25 26 27 28 29 30 31 32 33 34 35 36 37 38 39 40 41 42 43 44 45 46 47 48 49 50
000
ASUS43 KMPX 281310
RWRMN
WEATHER ROUNDUP FOR MINNESOTA
NATIONAL WEATHER SERVICE TWIN CITIES/CHANHASSEN MN
800 AM CDT THU AUG 28 2014


NOTE: "FAIR" INDICATES FEW OR NO CLOUDS BELOW 12,000 FEET WITH NO
SIGNIFICANT WEATHER AND/OR OBSTRUCTIONS TO VISIBILITY. N/A MEANS
CURRENT SKY AND/OR WEATHER CONDITIONS ARE NOT AVAILABLE.

MNZ060>063-068>070-281400-
   Twin Cities Metro

CITY           SKY/WX    TMP DP  RH WIND       PRES   REMARKS
TWIN CITIES    PTSUNNY   64  57  78 SE7       30.09R
ST PAUL        MOSUNNY   63  56  78 SE9       30.09S
CRYSTAL        MOSUNNY   66  56  70 SE8       30.07S
BLAINE         PTSUNNY   64  57  77 SE5       30.09R
LAKEVILLE      MOSUNNY   57  57 100 CALM      30.08S
EDEN PRAIRIE   MOSUNNY   63  58  83 E7        30.07S
SOUTH ST PAUL  MOSUNNY   62  55  77 SE3       30.09S
LAKE ELMO      FAIR      59  55  88 CALM      30.11R
$$
MNZ001>005-007-008-013>017-022>024-027-028-281400-
   Northwest Minnesota

CITY           SKY/WX    TMP DP  RH WIND       PRES   REMARKS
BEMIDJI        PTSUNNY   58  56  94 SE5       30.06S
HALLOCK        SUNNY     61  57  88 SE8       29.96F
ROSEAU         MOSUNNY   61  55  82 S9        30.01F
WARROAD        SUNNY     57  54  88 S8        30.03S
THIEF RVR FALL PTSUNNY   61  57  88 SE10      30.00F
CROOKSTON      CLOUDY    63  61  94 SE10      30.00S
FOSSTON        CLOUDY    61  57  88 SE6       30.04S
DETROIT LAKES  CLOUDY    61  59  94 SE10      30.04F
MOORHEAD       CLOUDY    66  64  94 S10       30.00S
PARK RAPIDS    CLOUDY    59  56  89 SE8       30.06S
MAHNOMEN       CLOUDY    61  58  90 SE6       30.02S
$$
MNZ006-009>011-018-025>026-281400-
   North Central Minnesota

CITY           SKY/WX    TMP DP  RH WIND       PRES   REMARKS
BAUDETTE       CLOUDY    54  53  97 SE3       30.05S FOG
FLAG ISLAND    SUNNY     66  61  82 S12       30.01S
INTL FALLS     MOSUNNY   51  51 100 CALM      30.08S FOG
WASKISH        CLOUDY    57  57 100 CALM      30.06S
BIG FORK       MOSUNNY   52  50  93 CALM      30.10S FOG
LONGVILLE      CLOUDY    57  57 100 SE3       30.07F
GRAND RAPIDS   CLOUDY    54  52  94 SE3       30.10S
CRANE LAKE     SUNNY     45  45 100 CALM      30.11S FOG
ORR            FOG       52  48  87 CALM      30.08S VSB 1/4
COOK           SUNNY     48  46  93 CALM      30.11S
WALKER         CLOUDY    59  56  90 CALM      30.07R
$$
MNZ012-019>021-037-281400-
   Northeast Minnesota

CITY           SKY/WX    TMP DP  RH WIND       PRES   REMARKS
DULUTH         SUNNY     57  52  83 S5        30.12S
ELY            PTSUNNY   46  46 100 CALM      30.12S FOG
HIBBING        FOG       50  48  93 CALM      30.12S VSB 1/4
EVELETH        FOG       52  52 100 CALM      30.13S VSB 1/4
DULUTH HARBOR  SUNNY     57  55  94 CALM      30.12S
TWO HARBORS    SUNNY     54  48  82 CALM      30.11S
SILVER BAY     SUNNY     48  48 100 CALM      30.11S
GRAND MARAIS     N/A     60  50  69 NE7       30.12S
G MARAIS ARPRT SUNNY     54  46  76 CALM      30.15S
$$
MNZ029>031-032-039>041-046>048-054>057-064-281400-
   West Central Minnesota

CITY           SKY/WX    TMP DP  RH WIND       PRES   REMARKS
FERGUS FALLS   PTSUNNY   64  57  77 SE9       30.01F
WHEATON        CLOUDY    59  57  94 E7        30.02S
MORRIS         PTSUNNY   64  61  88 SE10      30.01S
ALEXANDRIA     CLOUDY    61  58  90 SE12      30.06S
ELBOW LAKE     FAIR      63  59  87 SE10      30.01F
WADENA         CLOUDY    61  57  88 E3        30.05S
GLENWOOD       PTSUNNY   63  59  88 E9        30.05F
APPLETON       CLOUDY    64  59  82 SE7       30.00F
BENSON         PTSUNNY   64  59  82 SE7       30.02F
ORTONVILLE     CLOUDY    64  59  82 SE8       30.00S
MADISON        CLOUDY    66  63  88 SE7       30.00S
WILLMAR        FAIR      63  59  88 SE10      30.05F
$$
MNZ033>034-036-042>043-049>051-058-059-281400-
   Central Minnesota

CITY           SKY/WX    TMP DP  RH WIND       PRES   REMARKS
ST CLOUD       PTSUNNY   62  57  83 E5        30.07F
SAUK CENTRE    CLOUDY    61  58  91 SE9       30.06S
PAYNESVILLE    MOSUNNY   60  57  90 E9        30.06F
AITKIN         PTSUNNY   61  55  82 CALM      30.08S
PINE RIVER     SUNNY     61  61 100 SE5       30.10S
BRAINERD       PTSUNNY   60  55  83 SE6       30.09R
STAPLES        CLOUDY    61  55  82 SE3       30.06F
LONG PRAIRIE   CLOUDY    59  57  94 SE6       30.07S
LITTLE FALLS   MOSUNNY   59  54  82 SE5       30.07S
LITCHFIELD     MOSUNNY   64  63  94 SE8       30.06F
BUFFALO        MOSUNNY   63  57  83 E5        30.08S
MAPLE LAKE     MOSUNNY   64  61  88 E3        30.08S
$$
MNZ037-044-045-052-053-281400-
   East Central Minnesota

CITY           SKY/WX    TMP DP  RH WIND       PRES   REMARKS
PRINCETON      MOSUNNY   63  57  82 E5        30.09S
MORA           CLOUDY    55  54  94 CALM      30.12R
CAMBRIDGE      SUNNY     63  52  67 E5        30.07F
RUSH CITY      SUNNY     58  54  86 CALM      30.10S
MOOSE LAKE     SUNNY     52  52 100 CALM      30.09S
HINCKLEY       PTSUNNY   55  54  94 CALM      30.11S
CLOQUET        SUNNY     54  54 100 CALM      30.11S
MCGREGOR       PTSUNNY   55  54  94 CALM      30.11R
$$
MNZ071>073-080-081-089-090-097-098-281400-
   Southwest Minnesota

CITY           SKY/WX    TMP DP  RH WIND       PRES   REMARKS
MONTEVIDEO     CLOUDY    63  61  94 SE7       30.02S
GRANITE FALLS  CLOUDY    64  60  87 E8        30.03S
CANBY          DRIZZLE   63  61  93 SE7       30.01S
MARSHALL       CLOUDY    63  57  82 SE9       30.00S
REDWOOD FALLS  CLOUDY    63  59  87 SE12      30.02F
OLIVIA         PTSUNNY   63  57  82 SE8       30.03F
PIPESTONE      RAIN      64  63  94 SE8       30.00S
WINDOM         CLOUDY    64  61  88 SE9       30.03S
WORTHINGTON    CLOUDY    64  63  94 SE7       30.03S
JACKSON        LGT RAIN  63  61  94 SE9       30.04S
TRACY          CLOUDY    64  62  93 E5        30.02S
SLAYTON        DRIZZLE   63  62  97 CALM      30.02S
$$
MNZ065>067-074>077-082>085-091>093-281400-
   South Central Minnesota

CITY           SKY/WX    TMP DP  RH WIND       PRES   REMARKS
MANKATO        CLOUDY    63  55  77 SE10      30.06S
NEW ULM        PTSUNNY   63  61  94 SE8       30.05S
ST JAMES       CLOUDY    63  61  94 E6        30.05F
FAIRMONT       CLOUDY    63  57  82 SE8       30.05S
GLENCOE        MOSUNNY   63  58  83 E7        30.06F
FARIBAULT      PTSUNNY   66  57  72 E6        30.08S
OWATONNA       PTSUNNY   63  57  82 SE9       30.08S
WASECA         PTSUNNY   61  54  77 SE7       30.09S
ALBERT LEA     CLOUDY    63  59  88 SE6       30.08R
$$
MNZ078>079-086>088-094>096-281400-
   Southeast Minnesota

CITY           SKY/WX    TMP DP  RH WIND       PRES   REMARKS
ROCHESTER      PTSUNNY   62  59  90 SE9       30.11S
RED WING       SUNNY     63  55  77 E6        30.09S
STANTON        PTSUNNY   64  57  80 SE7       30.07F
DODGE CENTER   PTSUNNY   61  59  94 SE7       30.09F
WINONA         MOSUNNY   61  57  88 SE7       30.11S
AUSTIN         CLOUDY    61  57  88 E5        30.09R
PRESTON        MOSUNNY   60  60 100 CALM      30.11S
$$
ABBREVIATIONS USED IN REMARKS
   TC - TEMPERATURES IN CELSIUS
  WCI - WIND CHILL INDEX
   HX - HEAT INDEX
  VSB - VISIBILITY
$$


USA.gov is the U.S. government's official web portal to all federal, state and local government web resources and services.